Regional Weather Roundup
Issued by NWS

Home | Current Version | Previous Version | Graphics & Text | Print | Product List | Glossary On
Versions: 1 2 3 4 5 6 7 8 9 10 11 12 13 14 15 16 17 18 19 20 21 22 23 24 25 26 27 28 29 30 31 32 33 34 35 36 37 38 39 40 41 42 43 44 45 46 47 48 49 50
000
ASUS45 KCYS 020010
RWRWY

WYOMING REGIONAL WEATHER ROUNDUP
NATIONAL WEATHER SERVICE CHEYENNE WY
600 PM MDT SAT AUG 01 2015

NOTE:  "FAIR" INDICATES FEW OR NO CLOUDS BELOW 12,000 FEET
WITH NO SIGNIFICANT WEATHER AND/OR OBSTRUCTIONS TO VISIBILITY.

WYZ001-020100-
YELLOWSTONE NATIONAL PARK

CITY           SKY/WX    TMP DP  RH WIND       PRES   REMARKS
LK YELLOWSTONE   N/A     72  33  24 E5        30.33F
6HR MIN TEMP:  65; 6HR MAX TEMP:  76;

W YELLOWSTONE  NOT AVBL

$$
WYZ002>013-054>058-071-098>099-020100-
NORTHERN WYOMING

CITY           SKY/WX    TMP DP  RH WIND       PRES   REMARKS
JACKSON        SUNNY     84  25  11 W7        30.20F
CODY           FAIR      86  36  16 NE10      30.07S
GREYBULL       FAIR      97  21   6 NW14G23   29.95F HX  90
6HR MIN TEMP:  88; 6HR MAX TEMP:  98;

WORLAND        FAIR      94  23   8 N5        29.99F
6HR MIN TEMP:  86; 6HR MAX TEMP:  96;

SHERIDAN       FAIR      94  27   9 NW13      29.97F
6HR MIN TEMP:  93; 6HR MAX TEMP:  98;

BUFFALO        FAIR      91  30  11 N7        30.07S
6HR MIN TEMP:  87; 6HR MAX TEMP:  93;

GILLETTE       FAIR      93  24   8 N13       29.99F
6HR MIN TEMP:  89; 6HR MAX TEMP:  95;

HULETT         FAIR      90  34  13 S3        29.99F
NEWCASTLE      FAIR      91  23   8 N8        30.00S

$$
WYZ014>020-022>026-101>103-020100-
CENTRAL WYOMING

CITY           SKY/WX    TMP DP  RH WIND       PRES   REMARKS
BIG PINEY      FAIR      86  20   9 N14       30.24F
6HR MIN TEMP:  80; 6HR MAX TEMP:  86;

PINEDALE       FAIR      82  27  13 NW16G22   30.24F
DUBOIS         FAIR      81  19  10 NW12      30.23F
LANDER         FAIR      91  32  12 N7        30.07F
6HR MIN TEMP:  86; 6HR MAX TEMP:  92;

RIVERTON       FAIR      91  29  11 N9        30.09F
6HR MIN TEMP:  85; 6HR MAX TEMP:  93;

CASPER         FAIR      91  24   9 VRB3      30.06F
6HR MIN TEMP:  86; 6HR MAX TEMP:  93;

DOUGLAS        FAIR      94  31  10 CALM      30.04F
6HR MIN TEMP:  90; 6HR MAX TEMP:  96;


$$
WYZ021-027>030-104>119-020100-
SOUTHERN WYOMING

CITY           SKY/WX    TMP DP  RH WIND       PRES   REMARKS
EVANSTON       FAIR      83  16   8 CALM      30.24S
6HR MIN TEMP:  79; 6HR MAX TEMP:  87;

KEMMERER       FAIR      82  25  12 NW15      30.24F
FORT BRIDGER   CLEAR     86  23  10 S6        30.24F
ROCK SPRINGS   FAIR      83  25  12 SW8       30.18F
6HR MIN TEMP:  77; 6HR MAX TEMP:  86;

DIXON          FAIR      87  24  10 CALM      30.19S
RAWLINS        FAIR      88  25  10 VRB7      30.18F
6HR MIN TEMP:  82; 6HR MAX TEMP:  90;

SARATOGA       FAIR      86  23  10 W7        30.21S
LARAMIE        FAIR      82  26  13 NW5       30.21F
6HR MIN TEMP:  81; 6HR MAX TEMP:  86;

CHEYENNE       FAIR      84  42  22 E13       30.13F
6HR MIN TEMP:  82; 6HR MAX TEMP:  90;

TORRINGTON     FAIR      91  45  20 E7        29.97F
6HR MIN TEMP:  86; 6HR MAX TEMP:  97; 6HR PCP: TRACE;

PINE BLUFFS    FAIR      88  37  16 CALM      30.07S

$$


USA.gov is the U.S. government's official web portal to all federal, state and local government web resources and services.